EW5037 Weather Reports


time (UTC)temp
C
wind
direction
speed
KPH
gust
KPH
rain 1hr
cm
rain 24hr
cm
rain mn
cm
humidity
%
barometer
mb
20260505124507 21 158 6.4 14.5 0.00 0.00 0.00 78 1013.9
20260505123424 20 158 6.4 11.3 0.00 0.00 0.00 79 1013.6
20260505122337 20 180 4.8 9.7 0.00 0.00 0.00 79 1013.6
20260505121250 20 180 3.2 4.8 0.00 0.00 0.00 79 1013.6
20260505120649 19 180 3.2 4.8 0.00 0.00 0.00 79 1013.6
20260505115125 19 180 1.6 6.4 0.00 0.00 0.00 78 1013.4
20260505114947 18 158 0.0 0.0 0.00 0.00 0.00 78 1013.3
20260505112947 18 180 0.0 3.2 0.00 0.00 0.00 78 1013.3
20260505111903 18 180 0.0 0.0 0.00 0.00 0.00 77 1013.2
20260505111301 18 113 0.0 3.2 0.00 0.00 0.00 77 1013.2
20260505101425 18 180 0.0 0.0 0.00 0.00 0.00 76 1013.4
20260505100339 18 338 0.0 0.0 0.00 0.00 0.00 75 1013.4
20260505095726 18 315 0.0 0.0 0.00 0.00 0.00 75 1013.2
20260505094213 18 338 0.0 3.2 0.00 0.00 0.00 75 1013.2
20260505093123 18 315 0.0 0.0 0.00 0.00 0.00 75 1013.3
20260505092039 18 293 0.0 0.0 0.00 0.00 0.00 75 1013.1
20260505090950 18 315 0.0 0.0 0.00 0.00 0.00 75 1013.1
20260505085903 18 0 0.0 0.0 0.00 0.00 0.00 75 1013.2
20260505084815 18 23 0.0 0.0 0.00 0.00 0.00 75 1013.2
20260505083736 18 293 0.0 0.0 0.00 0.00 0.00 74 1013.2
20260505083129 18 338 0.0 0.0 0.00 0.00 0.00 74 1013.2
20260505081601 18 23 0.0 0.0 0.00 0.00 0.00 74 1013.5
20260505080512 18 158 0.0 0.0 0.00 0.00 0.00 74 1013.5
20260505075427 18 225 0.0 0.0 0.00 0.00 0.00 73 1013.2
20260505074343 18 158 0.0 0.0 0.00 0.00 0.00 73 1013.2
20260505073302 18 135 0.0 0.0 0.00 0.00 0.00 72 1013.2
20260505072650 18 158 0.0 0.0 0.00 0.00 0.00 71 1013.2
20260505071122 19 158 0.0 0.0 0.00 0.00 0.00 70 1013.6
20260505070037 19 135 0.0 0.0 0.00 0.00 0.00 70 1014.3
20260505064951 19 113 0.0 0.0 0.00 0.00 0.00 69 1014.3
20260505063906 20 113 0.0 0.0 0.00 0.00 0.00 68 1014.6
20260505062825 20 135 1.6 3.2 0.00 0.00 0.00 68 1014.6
20260505061732 20 225 3.2 6.4 0.00 0.00 0.00 67 1014.4
20260505060648 20 203 4.8 8.0 0.00 0.00 0.00 67 1014.4
20260505055601 20 203 3.2 6.4 0.00 0.00 0.00 66 1014.6
20260505054517 20 158 3.2 4.8 0.00 0.00 0.00 66 1014.6
20260505053427 20 135 3.2 4.8 0.00 0.00 0.00 66 1014.3
20260505052347 20 158 3.2 6.4 0.00 0.00 0.00 66 1014.3
20260505051257 20 135 4.8 8.0 0.00 0.00 0.00 66 1014.6
20260505050652 20 135 4.8 8.0 0.00 0.00 0.00 65 1014.6
20260505041255 21 113 4.8 8.0 0.00 0.00 0.00 63 1014.7
20260505035734 21 135 6.4 11.3 0.00 0.00 0.00 63 1015.0
20260505035605 21 113 6.4 9.7 0.00 0.00 0.00 62 1015.0
20260505033604 21 135 4.8 9.7 0.00 0.00 0.00 61 1014.9
20260505032519 21 158 6.4 11.3 0.00 0.00 0.00 59 1014.9
20260505031438 21 158 6.4 11.3 0.00 0.00 0.00 59 1015.1
20260505030346 21 135 4.8 9.7 0.00 0.00 0.00 59 1015.1
20260505025301 20 135 4.8 6.4 0.00 0.00 0.00 59 1015.1
20260505024219 21 135 4.8 8.0 0.00 0.00 0.00 59 1015.1
20260505023132 21 135 4.8 8.0 0.00 0.00 0.00 58 1014.9
20260505023005 21 135 3.2 6.4 0.00 0.00 0.00 58 1014.9
20260505021007 21 338 6.4 8.0 0.00 0.00 0.00 58 1014.9
20260505020850 21 158 6.4 8.0 0.00 0.00 0.00 57 1014.4
20260505014843 21 338 4.8 8.0 0.00 0.00 0.00 57 1014.4
20260505013747 21 158 4.8 9.7 0.00 0.00 0.00 57 1014.6
20260505012707 21 135 4.8 6.4 0.00 0.00 0.00 57 1014.6
20260505011611 21 158 4.8 6.4 0.00 0.00 0.00 57 1014.7
20260505011516 21 135 4.8 9.7 0.00 0.00 0.00 56 1014.7
20260505005439 21 158 4.8 8.0 0.00 0.00 0.00 56 1014.9
20260505004358 21 135 6.4 9.7 0.00 0.00 0.00 55 1014.9
20260505003746 21 135 4.8 6.4 0.00 0.00 0.00 55 1014.9
20260505002230 22 113 6.4 9.7 0.00 0.00 0.00 54 1014.9
20260505001142 22 158 6.4 11.3 0.00 0.00 0.00 53 1015.1
20260505000543 22 158 8.0 14.5 0.00 0.00 0.00 52 1015.4
20260504235008 22 158 9.7 14.5 0.00 0.00 0.00 51 1015.4
20260504233923 22 135 8.0 12.9 0.00 0.00 0.00 51 1015.5
20260504233305 22 158 11.3 17.7 0.00 0.00 0.00 49 1015.5
20260504231746 22 158 9.7 14.5 0.00 0.00 0.00 49 1015.7
20260504231142 22 135 8.0 12.9 0.00 0.00 0.00 49 1015.7
20260504230053 22 113 9.7 14.5 0.00 0.00 0.00 48 1015.6
20260504224528 23 158 9.7 16.1 0.00 0.00 0.00 47 1015.6
20260504223440 23 113 11.3 14.5 0.00 0.00 0.00 47 1016.0
20260504222354 23 158 8.0 14.5 0.00 0.00 0.00 46 1016.0
20260504221309 23 90 8.0 12.9 0.00 0.00 0.00 47 1016.0
20260504220223 23 225 9.7 14.5 0.00 0.00 0.00 46 1016.0
20260504215630 23 135 9.7 14.5 0.00 0.00 0.00 46 1016.0
20260504214050 23 135 11.3 16.1 0.00 0.00 0.00 45 1015.7
20260504213003 23 180 11.3 14.5 0.00 0.00 0.00 44 1015.7
20260504212838 23 180 11.3 22.5 0.00 0.00 0.00 43 1016.3
20260504210833 24 135 11.3 19.3 0.00 0.00 0.00 41 1016.3
20260504210227 24 180 11.3 20.9 0.00 0.00 0.00 39 1016.6
20260504204707 24 135 9.7 14.5 0.00 0.00 0.00 39 1016.6
20260504203617 24 158 8.0 14.5 0.00 0.00 0.00 38 1016.9
20260504202528 24 135 8.0 20.9 0.00 0.00 0.00 38 1016.9
20260504201444 24 113 9.7 19.3 0.00 0.00 0.00 36 1017.7
20260504200358 24 135 8.0 9.7 0.00 0.00 0.00 36 1017.7
20260504195753 24 225 9.7 17.7 0.00 0.00 0.00 35 1017.9
20260504194711 23 68 11.3 14.5 0.00 0.00 0.00 34 1017.9
20260504193138 24 158 11.3 20.9 0.00 0.00 0.00 34 1018.1
20260504192053 23 135 12.9 17.7 0.00 0.00 0.00 36 1018.1
20260504191008 24 113 9.7 12.9 0.00 0.00 0.00 36 1018.1
20260504185923 24 158 11.3 19.3 0.00 0.00 0.00 36 1018.3
20260504185154 23 135 9.7 19.3 0.00 0.00 0.00 36 1018.5
20260504184839 23 90 9.7 19.3 0.00 0.00 0.00 37 1018.3
20260504182704 23 135 11.3 19.3 0.00 0.00 0.00 38 1018.5
20260504181621 23 158 9.7 17.7 0.00 0.00 0.00 38 1019.0
20260504180535 23 135 9.7 9.7 0.00 0.00 0.00 38 1019.0
20260504175931 23 135 11.3 27.4 0.00 0.00 0.00 38 1018.9
20260504174402 23 180 9.7 14.5 0.00 0.00 0.00 40 1018.9
20260504173323 23 180 9.7 20.9 0.00 0.00 0.00 41 1018.8
20260504172233 23 113 11.3 9.7 0.00 0.00 0.00 41 1018.8
20260504171146 23 158 12.9 27.4 0.00 0.00 0.00 40 1019.1
20260504150233 21 135 9.7 14.5 0.00 0.00 0.00 50 1018.9
20260504140844 20 180 4.8 16.1 0.00 0.00 0.00 62 1019.4